SCP
0 0 0 0 0 0 0 0 0 0 0 -0 -0 -0 -0 0 -0 -0 0 -0 -0 0 0 0 0 0 0 0 0 0 0 0 0 0 0 0 0 0 0 0 0 0 0 0 0 0 0 0 0 0 0 0 0 0
0 0 0 0 0 0 0 0 0 0 0 -0 0 -0 -0 -0 -0 0 -0 -0 -0 -0 0 0 0 0 0 0 0 0 0 0 0 0 0 0 0 0 0 0 0 0 0 0 0 0 0 0 0 0 0 0 0 0
0 0 0 0 0 0 0 0 0 -0 0 0 -0 -0 -0 -0 -0 0 0 -0 -0 -0 0 0 0 0 0 -0 0 0 0 0 0 0 0 0 0 0 0 0 0 0 0 0 0 0 0 0 0 0 0 0 0 0
0 0 0 0 0 0 0 0 0 0 0 0 -0 -0 -0 -0 -0 -0 0 -0 0 -0 0 0 0 0 0 0 0 0 0 0 0 0 0 0 0 0 0 0 0 0 0 0 0 0 0 0 0 0 0 0 0 0
0 0 0 0 0 0 0 0 0 0 0 -0 0 -0 -0 -0 -0 -0 -0 -0 -0 0 0 0 0 0 0 0 0 0 0 0 0 0 0 0 0 0 0 0 0 0 0 0 0 0 0 0 0 0 0 0 0 0
0 0 0 0 0 0 0 -0 0 0 0 -0 -0 -0 -0 -0 -0 -0 0 0 0 0 0 0 0 -0 -0 -0 -0 0 0 0 0 0 0 0 0 0 0 0 0 0 0 0 0 0 0 0 0 0 0 0 0 -0
0 0 0 -0 -0 -0 0 0 0 0 -0 -0 -0 -0 -0 -0 -0 0 0 0 0 0 0 0 0 0 -0 0 0 0 0 0 0 0 0 0 0 0 0 0 0 0 0 0 0 0 0 0 0 0 0 0 0 -0
0 0 0 0 -0 -0 0 -0 0 -0 -0 -0 -0 -0 -0 0 -0 0 0 0 0 0 0 0 0 0 0 0 0 0 0 0 -0 0 0 0 0 0 0 0 0 0 0 0 0 0 0 0 0 0 0 0 0 0
0 0 0 0 0 0 0 -0 -0 -0 -0 -0 -0 -0 -0 -0 0 0 -0 0 0 0 0 0 0 0 0 0 0 0 0 0 -0 0 0 0 0 0 0 0 0 0 0 0 0 0 0 0 0 0 0 0 0 -0
0 -0 -0 -0 -0 0 -0 -0 -0 -0 -0 -0 0 0 0 0 -0 0 0 0 0 0 0 0 0 0 0 0 -0 -0 -0 0 0 0 0 0 0 -0 0 0 0 0 -0 -0 -0 0 0 0 0 0 0 0 0 -0
0 0 -0 0 -0 0 -0 -0 -0 -0 -0 0 -0 -0 0 -0 0 0 0 0 0 0 0 0 0 -0 -0 -0 -0 0 0 0 0 -0 0 -0 -0 -0 -0 0 0 0 -0 0 0 -0 0 0 0 0 0 0 0 -0
0 -0 0 0 -0 -0 -0 -0 -0 -0 0 -0 0 0 0 0 0 0 0 0 0 0 0 0 0 0 0 0 0 0 0 -0 -0 0 -0 -0 -0 0 -0 -0 -0 0 0 0 0 0 0 0 0 0 -0 -0 -0 -0
-0 0 0 0 -0 -0 -0 -0 -0 -0 -0 0 0 0 0 0 0 0 0 0 0 0 0 0 0 0 0 0 0 -0 0 0 0 0 0 -0 0 -0 -0 -0 -0 -0 -0 0 0 0 0 0 0 0 -0 -0 0 -0
0 -0 -0 0 -0 -0 -0 -0 -0 -0 -0 0 -0 0 0 0 0 0 0 0 0 0 0 0 0 0 0 0 0 -0 0 0 0 0 -0 -0 -0 -0 -0 -0 -0 -0 -0 0 0 0 0 0 0 0 -0 -0 -0 -0
-0 -0 -0 0 0 0 0 -0 -0 -0 0 0 0 -0 -0 0 0 0 0 -0 -0 0 0 0 0 0 -0 0 0 0 0 0 0 0 -0 -0 -0 0 -0 -0 -0 -0 -0 -0 0 0 0 0 -0 -0 -0 -0 -0 0
-0 -0 0 0 -0 -0 -0 0 -0 0 0 0 0 0 0 0 0 0 0 0 -0 0 0 -0 0 0 0 0 0 0 0 0 0 -0 -0 0 0 -0 -0 -0 -0 -0 -0 -0 0 -0 -0 -0 -0 -0 -0 -0 -0 0
0 0 -0 -0 -0 0 0 0 0 0 0 0 0 0 0 0 0 0 0 0 0 0 0 0 0 0 0 0 0 0 0 0 0 -0 0 0 -0 -0 -0 -0 -0 -0 -0 0 0 -0 0 0 -0 -0 -0 -0 -0 -0
0 0 -0 -0 -0 -0 -0 0 0 0 0 0 0 0 0 0 0 0 0 0 -0 -0 0 0 0 0 0 0 0 -0 0 -0 0 0 -0 -0 -0 -0 -0 -0 -0 -0 0 0 -0 -0 -0 0 -0 -0 0 -0 -0 -0
0 0 -0 -0 -0 -0 0 0 0 0 0 0 0 0 0 0 0 0 0 0 0 0 0 0 0 0 0 0 -0 -0 -0 -0 -0 0 -0 -0 -0 -0 -0 -0 -0 0 0 0 -0 -0 0 0 -0 -0 -0 0 -0 -0
0 0 0 0 -0 0 0 0 0 0 -0 0 0 0 0 0 0 0 -0 0 0 0 0 0 0 0 0 -0 0 0 0 -0 -0 -0 -0 -0 -0 -0 -0 0 -0 0 -0 -0 -0 0 -0 0 0 0 0 0 0 -0
0 0 0 0 0 0 0 0 0 0 0 0 0 0 0 0 0 0 0 0 -0 0 0 0 0 0 0 0 -0 -0 0 -0 -0 -0 -0 0 -0 -0 -0 -0 0 0 0 0 0 0 0 -0 -0 -0 -0 0 0 0
0 0 0 0 0 0 0 0 0 0 0 0 -0 -0 -0 0 0 0 0 0 0 0 0 0 0 -0 0 -0 0 -0 0 -0 0 0 0 0 0 -0 0 0 0 0 0 0 0 -0 -0 -0 -0 -0 0 0 0 0
0 0 0 0 0 0 0 0 0 0 0 0 0 -0 -0 -0 -0 -0 0 0 0 0 0 0 -0 -0 -0 0 -0 -0 -0 -0 0 -0 0 -0 0 0 0 0 0 0 -0 -0 -0 -0 -0 -0 -0 0 0 0 0 0
0 0 0 0 0 0 0 0 0 0 0 0 0 -0 -0 -0 -0 0 0 0 0 0 0 0 -0 -0 -0 0 -0 0 0 0 0 0 0 -0 -0 0 0 -0 -0 -0 -0 -0 -0 -0 0 0 0 0 0 0 0 0
0 0 0 -0 -0 0 0 0 0 0 0 0 0 -0 -0 0 -0 0 0 0 0 0 0 0 -0 0 -0 0 -0 -0 -0 0 -0 -0 0 -0 -0 -0 -0 -0 -0 -0 -0 -0 -0 0 0 0 0 0 0 0 0 0
0 0 -0 0 -0 0 0 0 0 0 0 0 0 0 0 -0 0 0 0 0 0 0 0 0 0 0 0 -0 -0 0 -0 -0 0 -0 0 -0 -0 -0 -0 -0 -0 0 0 0 0 0 0 0 0 0 0 0 0 0
0 -0 -0 0 0 0 0 0 0 0 0 0 0 -0 -0 -0 0 0 0 0 0 0 0 -0 -0 -0 0 -0 0 0 0 0 0 -0 -0 -0 -0 -0 -0 -0 -0 0 0 0 0 0 0 0 0 0 0 0 0 0
0 0 0 0 0 0 0 0 0 0 0 0 0 0 -0 0 0 0 0 0 0 0 0 0 0 -0 -0 -0 0 0 0 -0 -0 -0 -0 -0 -0 -0 -0 -0 0 0 0 0 0 0 0 0 0 0 0 0 0 0
0 0 0 0 0 0 0 0 0 -0 -0 -0 0 -0 -0 0 0 0 0 0 0 0 0 0 0 -0 -0 -0 0 0 -0 -0 -0 -0 -0 -0 -0 0 0 0 0 0 0 0 0 0 0 0 0 0 0 0 0 0
0 0 0 0 0 0 0 0 0 -0 -0 -0 -0 -0 -0 -0 0 0 0 0 0 0 0 0 0 0 -0 -0 -0 0 0 0 0 -0 -0 -0 -0 -0 0 0 0 0 0 0 0 0 0 0 0 0 0 0 0 0
0 0 0 0 0 0 0 0 -0 -0 -0 -0 -0 -0 0 0 0 0 0 0 0 0 0 0 0 0 0 0 0 -0 0 0 -0 -0 -0 -0 -0 0 0 0 0 0 0 0 0 0 0 0 0 0 0 0 0 0
0 0 0 0 0 0 0 -0 -0 -0 -0 -0 0 0 0 0 0 0 0 0 0 0 0 0 0 0 0 0 0 0 0 -0 -0 -0 -0 0 0 0 0 0 0 0 0 0 0 0 0 0 0 0 0 0 0 0
0 0 0 0 0 -0 -0 -0 -0 -0 -0 0 0 0 0 0 0 0 0 0 0 0 -0 0 0 0 0 0 0 0 0 0 -0 0 0 0 0 0 0 0 0 0 0 0 0 0 0 0 0 0 0 0 0 0
Wind_Speed_500mb
55 55 55 53 50 44 44 49 51 49 42 47 50 53 45 43 35 25 35 28 20 13 20 17 10 9 11 2 0 5 3 1 3 3 2 3 2 3 7 17 17 10 10 5 4 4 4 4 5 6 12 13 11 11
50 53 54 56 50 41 46 49 51 46 49 49 50 49 48 43 38 28 27 33 31 15 13 25 24 18 13 5 2 3 3 2 3 5 2 2 3 1 2 7 10 10 3 10 6 4 14 19 23 13 9 19 13 10
48 50 54 52 50 43 45 47 51 43 46 53 51 48 40 29 24 25 32 19 19 9 11 11 5 1 5 25 23 3 1 3 5 5 4 3 6 3 4 4 4 7 6 7 9 10 17 25 29 26 25 25 16 15
49 52 54 49 44 45 47 48 51 45 47 49 48 37 31 27 28 21 22 21 19 9 5 3 6 8 16 4 25 7 12 11 14 9 6 4 4 3 3 2 1 4 16 14 10 20 29 21 26 24 25 22 19 17
47 50 54 49 42 44 45 48 50 43 44 53 36 34 33 26 22 26 26 19 11 5 4 6 9 12 18 20 18 8 12 12 8 5 5 5 4 1 2 2 3 5 9 8 4 19 16 21 25 21 23 21 18 17
47 50 53 53 38 42 44 48 50 36 42 46 33 30 24 26 23 21 8 16 7 17 6 1 4 14 22 23 24 19 15 15 11 7 6 5 3 2 2 1 3 4 4 6 10 16 31 39 27 22 26 23 18 17
42 44 50 52 43 42 44 47 45 29 39 37 33 28 25 25 14 9 6 20 13 10 3 3 4 10 16 11 15 17 19 14 10 7 5 3 4 2 2 4 10 8 15 28 41 50 36 27 22 26 27 24 22 22
42 41 45 47 48 45 44 44 37 32 35 35 34 25 21 20 10 7 11 10 7 6 3 2 2 5 9 5 6 11 9 11 13 5 2 2 3 1 5 8 4 17 30 37 15 12 32 38 35 28 21 14 17 30
40 42 44 45 47 43 41 38 35 37 34 33 21 17 13 14 13 18 13 15 7 7 3 2 3 3 6 8 7 6 5 3 2 1 2 3 3 6 4 4 18 28 19 28 28 38 39 34 30 22 17 18 20 21
39 40 44 44 42 40 38 28 30 31 30 27 14 8 9 9 11 11 7 6 6 6 8 4 3 4 3 4 4 2 4 2 2 2 5 1 5 15 8 4 14 25 37 36 38 27 29 28 24 20 17 20 24 19
39 43 45 44 39 39 34 22 29 30 24 20 15 8 11 17 9 6 5 6 6 3 6 5 6 5 8 2 4 4 2 0 3 4 4 4 4 1 6 21 25 37 37 16 14 24 24 27 24 22 16 16 20 24
42 42 41 34 36 39 32 19 20 25 20 20 19 13 11 8 3 2 4 2 3 4 2 2 3 6 4 7 3 2 2 2 2 10 4 4 3 3 34 35 43 36 30 20 29 36 34 29 25 21 16 13 16 24
43 40 29 27 31 31 23 16 14 18 23 11 7 7 7 6 3 8 7 4 3 2 4 4 4 2 4 7 3 3 4 1 4 4 3 3 5 19 39 29 32 25 25 31 34 33 30 27 23 19 16 15 20 23
36 30 21 21 25 21 19 11 12 15 10 7 8 8 5 4 4 4 5 5 5 6 9 9 5 4 3 2 2 3 1 2 4 4 2 5 22 42 41 32 38 36 35 36 33 29 25 21 17 15 15 16 21 24
30 26 15 17 23 18 12 12 15 19 8 4 5 5 2 3 11 18 14 9 8 7 17 8 5 3 1 3 2 2 4 6 4 2 4 29 33 37 40 40 43 41 37 33 27 23 23 21 17 19 17 16 22 24
29 22 10 18 19 17 19 18 16 12 7 4 3 6 7 9 9 9 7 5 4 11 13 4 3 3 3 3 6 8 4 5 4 6 37 35 29 41 45 39 35 33 32 27 22 18 20 18 15 16 15 15 21 25
24 15 14 18 16 13 14 16 10 6 5 5 5 12 18 17 13 9 8 2 12 7 1 2 4 3 1 4 5 4 3 4 20 38 29 34 44 47 43 40 37 34 30 25 22 18 19 16 13 11 11 13 18 24
20 15 12 16 16 13 8 9 7 6 4 7 5 16 14 9 7 7 6 1 5 3 2 2 4 6 3 5 4 3 11 22 25 25 37 42 44 41 39 36 30 25 25 23 20 19 15 13 11 10 7 4 12 20
23 12 9 12 12 11 6 4 5 6 7 11 20 19 11 8 4 6 5 3 10 5 3 5 2 2 2 5 12 26 26 31 32 35 43 44 38 38 37 33 28 24 22 21 20 21 20 15 14 12 12 7 12 16
5 4 6 5 7 7 6 4 5 6 7 9 14 18 9 3 4 5 8 10 6 1 3 1 2 5 5 7 25 33 39 38 44 41 38 39 37 33 32 28 26 24 23 21 21 18 17 18 17 12 9 11 14 17
2 4 3 4 5 6 5 5 5 6 10 8 13 20 7 7 5 5 6 15 2 2 2 5 9 7 17 26 40 44 36 40 36 38 40 37 34 31 30 25 23 23 22 19 17 17 15 16 15 10 10 15 17 17
6 1 5 3 3 4 7 6 8 15 8 10 13 9 6 5 5 6 15 4 3 4 6 12 9 18 31 38 32 31 35 29 37 41 38 37 35 33 30 25 22 20 17 15 13 12 12 13 11 9 12 14 14 14
2 3 3 1 4 4 7 5 5 4 5 5 9 5 2 4 6 10 4 3 3 6 5 13 21 27 32 33 29 34 31 36 37 35 31 24 25 26 27 21 15 11 11 14 11 9 11 11 8 9 11 12 13 14
7 4 5 6 9 5 6 5 6 6 5 4 3 5 1 3 6 4 2 2 3 10 5 11 30 38 33 32 33 32 34 32 34 29 24 26 28 26 21 20 15 11 9 10 10 10 10 8 5 7 9 10 12 14
5 5 5 9 7 6 5 4 5 3 4 3 3 3 1 2 2 1 2 2 5 16 4 9 32 32 37 35 32 34 33 31 28 26 25 25 21 27 24 19 14 10 11 8 10 8 7 4 5 8 10 11 12 12
7 9 10 8 5 6 5 4 4 3 4 4 5 3 5 1 3 2 2 3 10 15 10 18 34 38 37 36 36 34 30 25 22 20 22 23 18 11 18 15 11 6 8 9 6 7 6 5 6 7 9 10 10 11
6 7 11 12 6 5 8 8 7 4 4 3 1 2 3 4 3 2 3 6 15 16 11 9 18 39 38 35 32 29 23 20 19 18 23 24 20 16 11 7 7 7 11 12 11 9 7 5 6 6 7 8 9 11
10 6 8 8 9 10 5 4 3 2 2 7 8 2 1 2 2 5 2 17 19 12 15 8 17 26 36 32 26 24 21 20 21 17 27 25 23 16 10 10 10 11 12 11 9 7 6 5 5 6 6 7 9 11
9 9 9 7 5 5 6 3 1 3 2 2 5 1 1 4 6 5 5 18 15 12 16 15 26 26 28 28 25 23 21 23 25 27 29 29 29 23 19 10 8 9 9 7 7 5 4 5 6 7 8 10 12 13
7 16 6 3 5 7 6 7 3 5 4 4 5 6 8 10 10 9 9 21 19 14 19 17 27 30 30 31 30 29 26 23 22 12 10 23 26 24 22 13 7 7 7 6 5 4 5 6 7 8 9 10 10 11
6 17 8 6 5 6 6 9 8 11 10 7 9 10 10 9 9 10 10 16 21 25 24 28 24 29 32 28 25 29 28 24 23 16 11 13 19 24 19 13 8 5 5 4 3 3 3 4 5 6 7 7 7 7
14 12 8 7 5 8 11 6 4 5 5 6 6 7 4 4 7 7 19 19 25 33 32 37 29 28 34 25 27 24 12 20 26 23 17 16 20 19 16 13 10 8 6 4 4 4 4 4 4 4 3 2 3 3
8 8 5 5 5 6 8 5 4 4 6 6 8 10 11 7 10 8 14 27 26 31 34 35 33 26 21 33 25 17 17 19 24 20 19 17 14 14 14 14 12 10 7 6 5 4 4 3 2 2 1 1 2 4
Wind_Direction_500mb
338 338 338 337 334 333 332 336 334 336 326 325 330 328 324 313 314 306 298 326 271 267 261 277 278 243 283 224 198 348 215 117 95 103 163 149 132 76 140 145 158 149 141 156 130 204 195 1 148 242 104 98 98 71
338 338 338 336 336 333 339 335 334 334 335 331 329 324 323 314 310 303 299 314 292 279 280 300 294 277 262 239 47 31 62 63 76 99 104 133 111 54 116 132 161 150 192 158 198 103 107 78 87 83 115 117 82 57
339 338 337 335 333 341 337 334 334 336 341 337 332 329 326 318 320 318 321 326 312 301 279 274 318 323 343 236 235 314 133 117 88 96 113 90 87 317 83 77 113 115 127 94 147 148 122 111 101 99 98 97 80 46
341 340 338 335 341 337 337 338 337 338 340 342 336 330 338 320 315 320 322 317 348 321 279 31 66 80 358 177 166 112 97 112 101 69 73 83 88 340 73 59 79 58 160 135 115 122 104 99 113 113 97 84 70 46
342 342 339 335 332 337 338 339 338 341 347 351 348 342 335 336 322 315 300 285 269 289 304 354 89 49 68 108 151 104 124 129 82 68 44 67 71 191 88 232 162 189 141 174 141 157 115 131 127 112 97 78 54 33
345 341 337 333 333 338 336 336 337 346 345 349 343 347 344 348 335 344 346 60 287 244 312 17 64 102 113 115 108 94 89 78 83 80 77 83 60 353 74 144 79 188 176 117 126 126 121 131 121 110 93 73 50 40
338 340 340 344 338 338 335 337 339 340 343 340 335 337 331 335 333 319 334 332 17 162 295 24 74 155 136 97 81 61 65 63 67 95 63 72 89 69 100 207 38 106 129 129 130 122 114 132 130 117 101 81 59 47
335 333 337 339 342 338 336 337 341 342 338 336 330 333 334 327 336 11 360 334 67 101 37 38 17 134 148 22 77 39 49 40 34 66 74 86 93 140 236 225 274 113 127 132 131 127 143 137 131 118 107 87 50 40
334 337 335 337 337 334 335 338 344 342 339 337 346 356 10 17 15 38 33 97 139 55 74 20 36 96 70 58 67 59 52 85 83 152 97 186 151 229 269 225 169 154 151 141 115 122 131 135 135 125 101 69 53 43
332 334 334 331 330 334 337 339 346 345 340 347 7 16 21 359 359 358 17 37 47 38 24 55 352 84 71 85 71 77 350 59 8 83 109 269 275 264 234 132 159 162 147 149 126 130 140 143 147 141 111 70 51 47
329 329 327 329 328 332 335 333 344 351 7 7 15 0 336 339 333 13 41 29 358 75 24 16 26 75 31 109 100 22 75 62 267 133 233 211 256 291 165 145 141 137 133 124 139 138 142 141 146 146 125 78 49 40
333 328 326 329 331 328 331 320 345 355 354 339 328 329 339 338 340 351 38 22 27 56 71 18 80 67 57 75 96 147 284 211 299 135 215 227 77 105 135 126 131 130 129 130 138 133 128 116 111 116 111 86 47 32
332 327 333 342 347 348 341 327 338 344 336 344 346 342 359 333 352 21 23 52 46 59 150 156 128 61 96 61 93 211 235 283 124 219 236 72 319 124 134 138 152 156 150 136 133 133 129 113 101 96 101 78 42 36
339 337 335 349 350 355 354 351 352 356 348 353 352 340 349 354 25 342 342 334 301 289 163 124 83 41 83 139 131 196 161 289 246 252 142 86 112 115 124 138 139 136 134 132 132 133 134 124 112 101 93 74 43 40
343 340 324 346 349 349 17 20 3 350 347 341 325 316 305 280 286 292 298 281 284 194 153 121 105 110 118 141 184 263 234 234 251 31 89 121 129 139 143 138 134 136 134 132 132 129 135 136 112 101 100 72 48 42
340 344 333 341 345 336 342 340 337 342 327 315 273 290 296 296 338 340 327 165 105 141 128 140 153 205 206 210 199 210 231 251 102 98 129 140 151 145 138 134 136 140 139 128 124 124 139 136 118 116 111 73 48 39
335 335 325 338 343 335 341 341 348 326 313 300 272 282 280 279 277 296 321 105 160 167 108 203 223 265 155 213 220 200 305 23 123 129 146 150 142 142 137 134 131 130 128 120 111 111 132 133 113 126 117 79 38 35
322 331 316 337 341 348 347 336 340 314 292 276 287 298 309 274 294 342 347 284 161 120 244 288 299 235 275 328 58 88 89 105 121 134 135 136 131 131 131 130 130 132 130 123 111 107 136 135 98 107 132 75 38 32
309 295 289 321 334 339 344 351 342 315 284 306 316 340 336 351 36 39 45 69 352 303 287 332 316 322 346 42 108 131 131 127 124 127 132 130 129 128 125 122 118 122 131 126 117 111 115 107 93 104 115 88 38 36
303 240 302 336 338 329 322 309 316 287 282 314 315 336 341 47 48 11 347 357 303 279 163 245 324 2 45 107 145 142 139 138 134 125 129 136 138 137 133 126 119 122 129 127 114 100 98 94 91 95 85 57 40 42
148 281 329 288 314 312 285 305 269 262 298 291 309 329 303 287 302 338 353 347 42 54 61 20 28 78 113 136 152 152 148 149 141 142 144 141 143 149 146 136 126 126 129 129 119 112 102 95 97 89 53 37 35 35
309 191 291 230 300 271 272 253 269 302 278 283 307 312 289 327 9 13 346 12 51 42 66 44 63 116 126 136 154 159 146 141 141 137 136 141 146 152 153 147 138 134 137 134 125 115 112 109 112 83 42 41 35 30
196 197 277 193 290 261 276 266 268 252 266 290 312 285 300 356 358 2 347 349 19 56 84 34 115 121 129 143 149 149 146 146 145 148 149 150 154 158 159 154 146 120 133 146 144 129 120 115 98 37 31 33 33 32
181 226 237 217 208 268 273 247 238 259 261 255 280 287 337 11 357 0 320 339 40 137 122 68 139 128 129 135 143 148 152 152 152 153 152 149 148 153 157 152 146 128 105 127 145 140 129 120 59 31 36 38 44 48
226 231 211 232 213 232 233 262 219 238 246 233 251 256 271 3 269 195 289 17 102 144 67 148 161 148 145 146 149 154 158 160 159 158 161 166 157 153 155 155 144 121 99 89 149 151 151 114 54 43 41 46 45 49
229 215 204 210 216 224 215 236 231 261 264 252 225 164 157 199 255 229 232 159 165 143 80 151 167 161 158 155 156 162 165 169 167 163 166 177 177 158 160 150 140 113 123 117 120 141 137 106 65 47 43 44 50 61
240 236 228 222 224 244 257 241 261 245 253 241 289 266 218 213 252 115 235 224 143 153 131 179 161 180 171 171 173 176 179 179 187 184 165 164 155 130 115 120 118 123 134 127 120 114 105 78 54 52 50 56 64 71
236 247 218 186 201 221 270 255 193 222 296 329 300 221 228 308 0 321 57 125 151 160 194 183 168 166 178 181 185 188 184 178 174 170 171 168 165 162 144 118 91 105 122 123 122 118 101 81 79 77 81 82 75 70
227 224 199 225 193 234 230 245 200 167 190 327 316 355 267 282 296 303 214 180 160 141 193 193 176 175 177 176 179 185 189 186 186 181 188 183 176 172 162 140 96 109 112 116 129 118 94 100 93 90 86 77 67 61
236 190 185 202 238 209 192 194 227 261 276 277 281 288 285 283 285 275 254 204 197 194 185 195 193 192 196 196 187 184 190 190 196 208 222 205 194 184 174 163 143 133 125 117 115 96 88 81 79 76 72 68 66 63
190 176 186 187 212 206 192 206 255 280 272 257 257 258 276 298 289 254 235 201 188 185 191 189 201 181 184 188 200 184 169 174 179 180 178 166 174 176 175 172 169 156 143 127 113 107 105 101 94 86 76 65 59 53
187 200 190 172 190 195 198 212 252 244 249 241 255 235 257 284 276 250 210 199 203 203 212 196 205 198 178 194 178 166 188 193 182 179 172 168 172 180 186 186 180 173 168 167 168 159 145 119 99 92 89 70 47 35
182 179 143 109 138 181 209 203 228 259 237 237 237 225 217 217 252 249 228 213 209 215 198 187 184 176 184 164 172 187 168 174 188 180 172 167 172 184 187 182 176 171 167 164 160 150 140 131 132 135 134 68 28 24
Wind_Speed_850mb
55 55 55 53 50 44 44 49 51 49 42 47 50 53 45 43 35 25 35 28 20 13 20 17 10 9 11 2 0 5 3 1 3 3 2 3 2 3 7 17 17 10 10 5 4 4 4 4 5 6 12 13 11 11
50 53 54 56 50 41 46 49 51 46 49 49 50 49 48 43 38 28 27 33 31 15 13 25 24 18 13 5 2 3 3 2 3 5 2 2 3 1 2 7 10 10 3 10 6 4 14 19 23 13 9 19 13 10
48 50 54 52 50 43 45 47 51 43 46 53 51 48 40 29 24 25 32 19 19 9 11 11 5 1 5 25 23 3 1 3 5 5 4 3 6 3 4 4 4 7 6 7 9 10 17 25 29 26 25 25 16 15
49 52 54 49 44 45 47 48 51 45 47 49 48 37 31 27 28 21 22 21 19 9 5 3 6 8 16 4 25 7 12 11 14 9 6 4 4 3 3 2 1 4 16 14 10 20 29 21 26 24 25 22 19 17
47 50 54 49 42 44 45 48 50 43 44 53 36 34 33 26 22 26 26 19 11 5 4 6 9 12 18 20 18 8 12 12 8 5 5 5 4 1 2 2 3 5 9 8 4 19 16 21 25 21 23 21 18 17
47 50 53 53 38 42 44 48 50 36 42 46 33 30 24 26 23 21 8 16 7 17 6 1 4 14 22 23 24 19 15 15 11 7 6 5 3 2 2 1 3 4 4 6 10 16 31 39 27 22 26 23 18 17
42 44 50 52 43 42 44 47 45 29 39 37 33 28 25 25 14 9 6 20 13 10 3 3 4 10 16 11 15 17 19 14 10 7 5 3 4 2 2 4 10 8 15 28 41 50 36 27 22 26 27 24 22 22
42 41 45 47 48 45 44 44 37 32 35 35 34 25 21 20 10 7 11 10 7 6 3 2 2 5 9 5 6 11 9 11 13 5 2 2 3 1 5 8 4 17 30 37 15 12 32 38 35 28 21 14 17 30
40 42 44 45 47 43 41 38 35 37 34 33 21 17 13 14 13 18 13 15 7 7 3 2 3 3 6 8 7 6 5 3 2 1 2 3 3 6 4 4 18 28 19 28 28 38 39 34 30 22 17 18 20 21
39 40 44 44 42 40 38 28 30 31 30 27 14 8 9 9 11 11 7 6 6 6 8 4 3 4 3 4 4 2 4 2 2 2 5 1 5 15 8 4 14 25 37 36 38 27 29 28 24 20 17 20 24 19
39 43 45 44 39 39 34 22 29 30 24 20 15 8 11 17 9 6 5 6 6 3 6 5 6 5 8 2 4 4 2 0 3 4 4 4 4 1 6 21 25 37 37 16 14 24 24 27 24 22 16 16 20 24
42 42 41 34 36 39 32 19 20 25 20 20 19 13 11 8 3 2 4 2 3 4 2 2 3 6 4 7 3 2 2 2 2 10 4 4 3 3 34 35 43 36 30 20 29 36 34 29 25 21 16 13 16 24
43 40 29 27 31 31 23 16 14 18 23 11 7 7 7 6 3 8 7 4 3 2 4 4 4 2 4 7 3 3 4 1 4 4 3 3 5 19 39 29 32 25 25 31 34 33 30 27 23 19 16 15 20 23
36 30 21 21 25 21 19 11 12 15 10 7 8 8 5 4 4 4 5 5 5 6 9 9 5 4 3 2 2 3 1 2 4 4 2 5 22 42 41 32 38 36 35 36 33 29 25 21 17 15 15 16 21 24
30 26 15 17 23 18 12 12 15 19 8 4 5 5 2 3 11 18 14 9 8 7 17 8 5 3 1 3 2 2 4 6 4 2 4 29 33 37 40 40 43 41 37 33 27 23 23 21 17 19 17 16 22 24
29 22 10 18 19 17 19 18 16 12 7 4 3 6 7 9 9 9 7 5 4 11 13 4 3 3 3 3 6 8 4 5 4 6 37 35 29 41 45 39 35 33 32 27 22 18 20 18 15 16 15 15 21 25
24 15 14 18 16 13 14 16 10 6 5 5 5 12 18 17 13 9 8 2 12 7 1 2 4 3 1 4 5 4 3 4 20 38 29 34 44 47 43 40 37 34 30 25 22 18 19 16 13 11 11 13 18 24
20 15 12 16 16 13 8 9 7 6 4 7 5 16 14 9 7 7 6 1 5 3 2 2 4 6 3 5 4 3 11 22 25 25 37 42 44 41 39 36 30 25 25 23 20 19 15 13 11 10 7 4 12 20
23 12 9 12 12 11 6 4 5 6 7 11 20 19 11 8 4 6 5 3 10 5 3 5 2 2 2 5 12 26 26 31 32 35 43 44 38 38 37 33 28 24 22 21 20 21 20 15 14 12 12 7 12 16
5 4 6 5 7 7 6 4 5 6 7 9 14 18 9 3 4 5 8 10 6 1 3 1 2 5 5 7 25 33 39 38 44 41 38 39 37 33 32 28 26 24 23 21 21 18 17 18 17 12 9 11 14 17
2 4 3 4 5 6 5 5 5 6 10 8 13 20 7 7 5 5 6 15 2 2 2 5 9 7 17 26 40 44 36 40 36 38 40 37 34 31 30 25 23 23 22 19 17 17 15 16 15 10 10 15 17 17
6 1 5 3 3 4 7 6 8 15 8 10 13 9 6 5 5 6 15 4 3 4 6 12 9 18 31 38 32 31 35 29 37 41 38 37 35 33 30 25 22 20 17 15 13 12 12 13 11 9 12 14 14 14
2 3 3 1 4 4 7 5 5 4 5 5 9 5 2 4 6 10 4 3 3 6 5 13 21 27 32 33 29 34 31 36 37 35 31 24 25 26 27 21 15 11 11 14 11 9 11 11 8 9 11 12 13 14
7 4 5 6 9 5 6 5 6 6 5 4 3 5 1 3 6 4 2 2 3 10 5 11 30 38 33 32 33 32 34 32 34 29 24 26 28 26 21 20 15 11 9 10 10 10 10 8 5 7 9 10 12 14
5 5 5 9 7 6 5 4 5 3 4 3 3 3 1 2 2 1 2 2 5 16 4 9 32 32 37 35 32 34 33 31 28 26 25 25 21 27 24 19 14 10 11 8 10 8 7 4 5 8 10 11 12 12
7 9 10 8 5 6 5 4 4 3 4 4 5 3 5 1 3 2 2 3 10 15 10 18 34 38 37 36 36 34 30 25 22 20 22 23 18 11 18 15 11 6 8 9 6 7 6 5 6 7 9 10 10 11
6 7 11 12 6 5 8 8 7 4 4 3 1 2 3 4 3 2 3 6 15 16 11 9 18 39 38 35 32 29 23 20 19 18 23 24 20 16 11 7 7 7 11 12 11 9 7 5 6 6 7 8 9 11
10 6 8 8 9 10 5 4 3 2 2 7 8 2 1 2 2 5 2 17 19 12 15 8 17 26 36 32 26 24 21 20 21 17 27 25 23 16 10 10 10 11 12 11 9 7 6 5 5 6 6 7 9 11
9 9 9 7 5 5 6 3 1 3 2 2 5 1 1 4 6 5 5 18 15 12 16 15 26 26 28 28 25 23 21 23 25 27 29 29 29 23 19 10 8 9 9 7 7 5 4 5 6 7 8 10 12 13
7 16 6 3 5 7 6 7 3 5 4 4 5 6 8 10 10 9 9 21 19 14 19 17 27 30 30 31 30 29 26 23 22 12 10 23 26 24 22 13 7 7 7 6 5 4 5 6 7 8 9 10 10 11
6 17 8 6 5 6 6 9 8 11 10 7 9 10 10 9 9 10 10 16 21 25 24 28 24 29 32 28 25 29 28 24 23 16 11 13 19 24 19 13 8 5 5 4 3 3 3 4 5 6 7 7 7 7
14 12 8 7 5 8 11 6 4 5 5 6 6 7 4 4 7 7 19 19 25 33 32 37 29 28 34 25 27 24 12 20 26 23 17 16 20 19 16 13 10 8 6 4 4 4 4 4 4 4 3 2 3 3
8 8 5 5 5 6 8 5 4 4 6 6 8 10 11 7 10 8 14 27 26 31 34 35 33 26 21 33 25 17 17 19 24 20 19 17 14 14 14 14 12 10 7 6 5 4 4 3 2 2 1 1 2 4
Wind_Direction_850mb
338 338 338 337 334 333 332 336 334 336 326 325 330 328 324 313 314 306 298 326 271 267 261 277 278 243 283 224 198 348 215 117 95 103 163 149 132 76 140 145 158 149 141 156 130 204 195 1 148 242 104 98 98 71
338 338 338 336 336 333 339 335 334 334 335 331 329 324 323 314 310 303 299 314 292 279 280 300 294 277 262 239 47 31 62 63 76 99 104 133 111 54 116 132 161 150 192 158 198 103 107 78 87 83 115 117 82 57
339 338 337 335 333 341 337 334 334 336 341 337 332 329 326 318 320 318 321 326 312 301 279 274 318 323 343 236 235 314 133 117 88 96 113 90 87 317 83 77 113 115 127 94 147 148 122 111 101 99 98 97 80 46
341 340 338 335 341 337 337 338 337 338 340 342 336 330 338 320 315 320 322 317 348 321 279 31 66 80 358 177 166 112 97 112 101 69 73 83 88 340 73 59 79 58 160 135 115 122 104 99 113 113 97 84 70 46
342 342 339 335 332 337 338 339 338 341 347 351 348 342 335 336 322 315 300 285 269 289 304 354 89 49 68 108 151 104 124 129 82 68 44 67 71 191 88 232 162 189 141 174 141 157 115 131 127 112 97 78 54 33
345 341 337 333 333 338 336 336 337 346 345 349 343 347 344 348 335 344 346 60 287 244 312 17 64 102 113 115 108 94 89 78 83 80 77 83 60 353 74 144 79 188 176 117 126 126 121 131 121 110 93 73 50 40
338 340 340 344 338 338 335 337 339 340 343 340 335 337 331 335 333 319 334 332 17 162 295 24 74 155 136 97 81 61 65 63 67 95 63 72 89 69 100 207 38 106 129 129 130 122 114 132 130 117 101 81 59 47
335 333 337 339 342 338 336 337 341 342 338 336 330 333 334 327 336 11 360 334 67 101 37 38 17 134 148 22 77 39 49 40 34 66 74 86 93 140 236 225 274 113 127 132 131 127 143 137 131 118 107 87 50 40
334 337 335 337 337 334 335 338 344 342 339 337 346 356 10 17 15 38 33 97 139 55 74 20 36 96 70 58 67 59 52 85 83 152 97 186 151 229 269 225 169 154 151 141 115 122 131 135 135 125 101 69 53 43
332 334 334 331 330 334 337 339 346 345 340 347 7 16 21 359 359 358 17 37 47 38 24 55 352 84 71 85 71 77 350 59 8 83 109 269 275 264 234 132 159 162 147 149 126 130 140 143 147 141 111 70 51 47
329 329 327 329 328 332 335 333 344 351 7 7 15 0 336 339 333 13 41 29 358 75 24 16 26 75 31 109 100 22 75 62 267 133 233 211 256 291 165 145 141 137 133 124 139 138 142 141 146 146 125 78 49 40
333 328 326 329 331 328 331 320 345 355 354 339 328 329 339 338 340 351 38 22 27 56 71 18 80 67 57 75 96 147 284 211 299 135 215 227 77 105 135 126 131 130 129 130 138 133 128 116 111 116 111 86 47 32
332 327 333 342 347 348 341 327 338 344 336 344 346 342 359 333 352 21 23 52 46 59 150 156 128 61 96 61 93 211 235 283 124 219 236 72 319 124 134 138 152 156 150 136 133 133 129 113 101 96 101 78 42 36
339 337 335 349 350 355 354 351 352 356 348 353 352 340 349 354 25 342 342 334 301 289 163 124 83 41 83 139 131 196 161 289 246 252 142 86 112 115 124 138 139 136 134 132 132 133 134 124 112 101 93 74 43 40
343 340 324 346 349 349 17 20 3 350 347 341 325 316 305 280 286 292 298 281 284 194 153 121 105 110 118 141 184 263 234 234 251 31 89 121 129 139 143 138 134 136 134 132 132 129 135 136 112 101 100 72 48 42
340 344 333 341 345 336 342 340 337 342 327 315 273 290 296 296 338 340 327 165 105 141 128 140 153 205 206 210 199 210 231 251 102 98 129 140 151 145 138 134 136 140 139 128 124 124 139 136 118 116 111 73 48 39
335 335 325 338 343 335 341 341 348 326 313 300 272 282 280 279 277 296 321 105 160 167 108 203 223 265 155 213 220 200 305 23 123 129 146 150 142 142 137 134 131 130 128 120 111 111 132 133 113 126 117 79 38 35
322 331 316 337 341 348 347 336 340 314 292 276 287 298 309 274 294 342 347 284 161 120 244 288 299 235 275 328 58 88 89 105 121 134 135 136 131 131 131 130 130 132 130 123 111 107 136 135 98 107 132 75 38 32
309 295 289 321 334 339 344 351 342 315 284 306 316 340 336 351 36 39 45 69 352 303 287 332 316 322 346 42 108 131 131 127 124 127 132 130 129 128 125 122 118 122 131 126 117 111 115 107 93 104 115 88 38 36
303 240 302 336 338 329 322 309 316 287 282 314 315 336 341 47 48 11 347 357 303 279 163 245 324 2 45 107 145 142 139 138 134 125 129 136 138 137 133 126 119 122 129 127 114 100 98 94 91 95 85 57 40 42
148 281 329 288 314 312 285 305 269 262 298 291 309 329 303 287 302 338 353 347 42 54 61 20 28 78 113 136 152 152 148 149 141 142 144 141 143 149 146 136 126 126 129 129 119 112 102 95 97 89 53 37 35 35
309 191 291 230 300 271 272 253 269 302 278 283 307 312 289 327 9 13 346 12 51 42 66 44 63 116 126 136 154 159 146 141 141 137 136 141 146 152 153 147 138 134 137 134 125 115 112 109 112 83 42 41 35 30
196 197 277 193 290 261 276 266 268 252 266 290 312 285 300 356 358 2 347 349 19 56 84 34 115 121 129 143 149 149 146 146 145 148 149 150 154 158 159 154 146 120 133 146 144 129 120 115 98 37 31 33 33 32
181 226 237 217 208 268 273 247 238 259 261 255 280 287 337 11 357 0 320 339 40 137 122 68 139 128 129 135 143 148 152 152 152 153 152 149 148 153 157 152 146 128 105 127 145 140 129 120 59 31 36 38 44 48
226 231 211 232 213 232 233 262 219 238 246 233 251 256 271 3 269 195 289 17 102 144 67 148 161 148 145 146 149 154 158 160 159 158 161 166 157 153 155 155 144 121 99 89 149 151 151 114 54 43 41 46 45 49
229 215 204 210 216 224 215 236 231 261 264 252 225 164 157 199 255 229 232 159 165 143 80 151 167 161 158 155 156 162 165 169 167 163 166 177 177 158 160 150 140 113 123 117 120 141 137 106 65 47 43 44 50 61
240 236 228 222 224 244 257 241 261 245 253 241 289 266 218 213 252 115 235 224 143 153 131 179 161 180 171 171 173 176 179 179 187 184 165 164 155 130 115 120 118 123 134 127 120 114 105 78 54 52 50 56 64 71
236 247 218 186 201 221 270 255 193 222 296 329 300 221 228 308 0 321 57 125 151 160 194 183 168 166 178 181 185 188 184 178 174 170 171 168 165 162 144 118 91 105 122 123 122 118 101 81 79 77 81 82 75 70
227 224 199 225 193 234 230 245 200 167 190 327 316 355 267 282 296 303 214 180 160 141 193 193 176 175 177 176 179 185 189 186 186 181 188 183 176 172 162 140 96 109 112 116 129 118 94 100 93 90 86 77 67 61
236 190 185 202 238 209 192 194 227 261 276 277 281 288 285 283 285 275 254 204 197 194 185 195 193 192 196 196 187 184 190 190 196 208 222 205 194 184 174 163 143 133 125 117 115 96 88 81 79 76 72 68 66 63
190 176 186 187 212 206 192 206 255 280 272 257 257 258 276 298 289 254 235 201 188 185 191 189 201 181 184 188 200 184 169 174 179 180 178 166 174 176 175 172 169 156 143 127 113 107 105 101 94 86 76 65 59 53
187 200 190 172 190 195 198 212 252 244 249 241 255 235 257 284 276 250 210 199 203 203 212 196 205 198 178 194 178 166 188 193 182 179 172 168 172 180 186 186 180 173 168 167 168 159 145 119 99 92 89 70 47 35
182 179 143 109 138 181 209 203 228 259 237 237 237 225 217 217 252 249 228 213 209 215 198 187 184 176 184 164 172 187 168 174 188 180 172 167 172 184 187 182 176 171 167 164 160 150 140 131 132 135 134 68 28 24